Dewpoint
38 38 36 34 35 34 33 35 35 34 35 34 34 35 34 33 33 33 33 34 35 36 36 37 38 38 37 41 43 43 43 43 42 41 41 42 42 42 42 42 42 41 39 38 39 38 40 39 38 35 34 27
38 38 37 36 34 33 33 34 35 34 35 34 33 34 33 31 30 31 31 32 33 34 34 36 35 36 38 41 42 42 42 42 42 41 41 41 41 41 41 41 40 40 38 37 37 36 37 37 37 33 33 27
39 39 39 37 36 36 34 34 33 34 34 35 34 32 31 29 28 27 29 29 30 31 34 33 31 33 38 41 41 40 41 41 41 41 40 41 40 39 40 39 38 37 35 35 35 35 35 34 34 30 31 27
34 41 40 40 38 36 36 35 35 35 33 34 33 31 30 29 28 28 29 29 28 28 32 28 30 33 37 38 39 40 40 40 40 39 39 39 39 38 37 36 35 32 32 32 33 33 33 32 32 23 25 25
32 34 40 40 39 37 37 37 36 36 36 34 35 31 34 29 25 27 30 25 24 29 31 29 30 32 33 36 38 38 37 37 37 38 37 36 37 37 34 33 28 28 29 30 31 31 30 30 21 24 23 25
32 34 39 36 35 35 36 39 39 36 34 38 32 34 31 27 30 30 25 24 30 30 30 30 31 30 31 34 36 36 34 34 34 35 34 35 36 34 32 30 19 28 35 26 27 28 28 24 21 23 23 23
30 31 33 36 32 31 38 38 38 35 36 32 30 29 26 30 26 28 28 27 30 33 35 31 27 28 31 32 33 32 33 31 31 32 33 33 32 32 29 22 19 23 23 22 29 30 24 19 21 22 22 22
26 29 31 33 30 27 28 33 35 33 30 30 29 27 24 26 28 28 25 32 28 28 29 23 30 27 27 28 29 28 34 31 29 29 30 28 27 34 30 23 22 22 21 21 21 22 21 21 20 20 21 24
24 26 27 29 29 27 25 26 28 28 28 26 26 24 25 24 25 27 25 24 23 22 23 23 22 23 21 23 23 30 26 24 23 28 22 23 29 20 23 22 20 20 19 22 21 19 20 20 20 20 23 23
25 29 24 24 24 24 23 24 23 24 25 24 24 24 24 27 25 24 25 24 22 23 23 22 21 21 21 21 24 29 22 22 22 22 21 21 21 20 20 20 20 20 26 21 20 18 18 18 19 20 21 21
26 27 24 23 24 24 21 21 21 21 21 22 23 24 26 26 23 21 21 21 21 20 21 19 20 20 21 21 20 23 22 21 21 21 20 19 19 20 21 20 21 21 20 19 18 18 18 17 18 19 20 20
22 25 25 23 31 29 27 25 21 19 20 22 22 24 23 29 21 19 19 20 19 18 20 20 19 21 21 21 20 22 22 20 20 20 19 19 20 20 20 18 19 18 17 17 17 17 17 18 18 18 19 19
21 23 25 27 27 25 32 26 20 19 20 20 22 23 24 28 23 19 19 18 18 19 18 18 18 19 18 19 19 20 19 21 19 19 19 19 18 19 17 17 16 18 18 18 18 18 18 18 18 19 19 19
23 23 24 24 24 24 33 27 24 22 20 20 20 21 24 23 24 19 17 17 18 18 17 18 19 21 19 19 18 20 19 20 21 19 18 18 18 18 17 16 16 21 18 17 17 17 18 18 18 19 19 19
23 25 23 25 23 23 25 25 27 25 21 20 20 19 22 23 25 22 18 17 17 18 17 17 17 16 17 18 18 19 19 20 21 19 18 18 17 16 16 16 16 18 16 16 16 20 18 17 17 18 18 18
25 24 24 26 24 23 22 26 24 23 22 25 20 21 20 21 20 30 20 18 18 17 17 16 16 16 17 16 17 19 18 18 18 19 19 20 20 19 18 17 16 17 17 16 16 16 16 17 17 17 17 17
25 26 26 26 25 24 27 23 24 22 21 20 20 21 20 20 20 25 23 19 19 29 18 16 16 16 20 18 18 19 20 20 19 18 18 17 20 18 18 17 16 20 18 16 16 17 16 16 16 16 17 17
22 25 25 27 24 28 25 24 23 24 21 22 22 21 21 20 20 24 22 20 18 19 19 19 17 17 16 17 19 19 19 18 17 16 16 16 17 21 22 18 17 16 14 14 15 15 15 16 16 16 15 15
24 23 23 24 25 23 25 23 22 21 22 21 20 21 20 21 21 23 21 21 19 18 17 16 16 16 15 15 19 18 18 18 16 16 15 17 15 15 15 15 17 16 15 15 14 14 16 14 14 16 15 15
23 21 21 22 28 25 24 24 23 21 20 20 20 22 19 19 21 23 21 20 20 17 16 16 15 14 15 16 18 17 17 18 17 16 17 16 17 14 13 18 14 14 14 14 14 14 14 14 18 16 15 14
21 22 21 20 20 22 25 22 21 21 20 20 19 19 18 18 20 22 21 20 20 17 16 15 15 14 15 17 16 16 16 16 18 17 18 16 19 17 14 13 12 12 13 13 13 13 13 13 16 14 14 13
22 23 22 20 20 28 25 22 21 21 21 20 19 19 18 18 19 22 20 20 19 18 17 16 15 14 15 16 16 16 16 15 14 15 15 14 14 15 14 12 11 11 11 14 14 13 13 13 13 13 12 13
21 21 20 19 19 19 18 18 19 21 19 20 19 18 18 18 19 21 20 20 20 18 17 18 17 15 15 16 16 15 14 14 15 16 15 13 13 16 15 13 12 11 12 14 14 14 13 13 12 13 13 16
21 21 21 19 18 18 18 17 21 20 19 19 18 20 20 19 18 17 20 18 18 17 17 16 16 16 16 15 16 15 14 13 13 12 13 13 13 13 14 17 15 14 13 13 12 14 13 13 12 11 13 13
20 19 19 19 18 18 17 18 22 21 18 18 17 19 19 19 18 18 17 19 18 16 18 18 15 15 15 16 17 15 14 13 13 13 13 14 14 15 13 12 13 13 13 12 11 11 10 10 11 16 16 14
21 19 18 18 19 18 18 17 17 16 16 17 19 19 19 19 18 17 17 18 17 18 15 14 15 15 14 15 15 15 16 14 21 16 15 15 13 14 13 11 12 14 12 9 8 7 7 9 9 12 14 14
20 20 21 19 18 18 18 18 18 17 18 18 18 16 16 17 17 17 16 16 18 17 16 15 14 14 15 14 17 16 14 14 14 14 14 14 13 11 12 13 14 12 12 8 10 11 9 7 7 14 16 17
25 23 20 21 21 21 18 17 22 22 19 17 15 15 15 16 16 16 16 16 15 17 17 16 14 14 14 14 15 14 13 12 11 11 12 12 14 12 10 9 10 15 13 11 10 7 8 8 9 6 5 11
23 23 22 21 20 21 20 18 17 15 16 16 18 20 17 15 15 16 16 16 15 17 15 16 15 14 13 13 13 14 13 11 11 11 11 11 11 11 10 8 8 12 14 12 12 8 7 5 3 6 6 7
24 23 22 20 19 19 20 19 18 18 18 18 17 15 15 15 15 15 15 15 15 15 17 15 15 15 14 14 14 15 13 12 11 11 10 10 10 9 10 9 8 8 14 13 14 13 9 6 6 5 8 6
26 23 22 21 20 20 19 19 19 18 17 17 16 17 15 15 14 14 13 13 14 15 15 16 15 15 14 14 13 15 13 11 11 10 11 12 10 9 13 11 9 9 9 10 11 13 12 12 12 10 8 7